Home   Weather   Seoul   Past weeks

Flag for South Korea Past Weather in Seoul, South Korea — Yesterday and Last 2 Weeks

64 °F

Partly sunny.

Feels Like: 64 °F
Forecast: 48 / 65 °F
Wind: 12 mph from North

Location: Seoul / Kimp'O International Airport

Current Time: Oct 25, 2016 at 3:47:45 PM

Latest Report: Oct 25, 2016 at 3:00 PM

Visibility: N/A

Pressure: 29.83 "Hg

Humidity: 60%

Dew Point: 50 °F

Location of SeoulLocation

Past Weather in Seoul — Graph


Seoul Temperature Yesterday

Maximum temperature yesterday: 68 °F (at 4:00 PM)
Minimum temperature yesterday: 45 °F (at 7:00 AM)
Average temperature yesterday: 58 °F

High & Low Weather Summary for the Past Weeks

High77 °F (Oct 15, 3:00 PM)94% (Oct 20, 9:00 AM)30.33 "Hg (Oct 20, 9:00 AM)
Low45 °F (Oct 24, 7:00 AM)6% (Oct 14, 3:00 PM)29.74 "Hg (Oct 25, 7:00 AM)
Average60 °F63%30.11 "Hg
* Reported Oct 10 2:00 PM — Oct 25 2:00 PM, Seoul, Weather by CustomWeather, © 2016

Note: Actual official high and low records may vary slightly from our data, if they occured in-between our weather recording intervals... More about our weather records


Seoul Weather History for the Previous 24 Hours

Scroll right to see more
Time TempWeatherWind HumidityBarometerVisibility
2:00 PM
Tue, Oct 25
63 °FScattered clouds.7 mph68%29.83 "HgN/A
1:00 PM59 °FBroken clouds.16 mph82%29.83 "HgN/A
12:00 PM59 °FBroken clouds.10 mph82%29.80 "Hg4 mi
11:00 AM59 °FPartly sunny.6 mph77%29.74 "Hg4 mi
10:00 AM57 °FFog.6 mph82%29.74 "Hg3 mi
9:00 AM57 °FLight rain. Fog.9 mph82%29.74 "Hg2 mi
8:00 AM55 °FRain. Fog.5 mph88%29.77 "Hg2 mi
7:00 AM55 °FRain. Fog.5 mph82%29.74 "Hg3 mi
6:00 AM55 °FRain. Fog.13 mph82%29.77 "Hg3 mi
5:00 AM55 °FRain. Fog.10 mph82%29.80 "Hg3 mi
4:00 AM55 °FRain. Fog.12 mph82%29.80 "Hg3 mi
3:00 AM55 °FRain. Fog.8 mph82%29.86 "Hg3 mi
2:00 AM57 °FLight rain. Mostly cloudy.8 mph72%29.89 "Hg4 mi
1:00 AM59 °FLight rain. Mostly cloudy.10 mph63%29.89 "Hg6 mi
12:00 AM63 °FMostly cloudy.8 mph49%29.92 "HgN/A
11:00 PM
Mon, Oct 24
63 °FMostly cloudy.7 mph49%29.95 "HgN/A
10:00 PM63 °FPartly cloudy.8 mph49%29.98 "HgN/A
9:00 PM63 °FPassing clouds.3 mph49%29.98 "HgN/A
8:00 PM64 °FClear.7 mph46%30.01 "Hg10 mi
7:00 PM64 °FClear.5 mph46%30.01 "Hg10 mi
6:00 PM64 °FClear.6 mph43%30.01 "Hg10 mi
5:00 PM64 °FSunny.7 mph43%30.01 "Hg10 mi
4:00 PM68 °FPassing clouds.5 mph35%30.01 "HgN/A
3:00 PM66 °FSunny.3 mph40%30.01 "Hg10 mi
Weather by CustomWeather, © 2016

See weather overviewHow to use our weather pages